Location: Eaglesham
(55.7833°N, 117.9000°W)
Time: 08:44:11
(UTC+00:00)

ISS - Pass Details

Date: 01 December 2021
Orbit: 413 x 422 km, 51.6° (Epoch: 23 January)

Event Time Altitude Azimuth Distance (km) Brightness Sun altitude
Rises 02:06:18 0° 269° (W) 2,385 1.6 -21.5°
Reaches altitude 10° 02:08:32 10° 260° (W) 1,516 0.2 -21.8°
Enters shadow 02:11:36 33° 195° (SSW) 734 -2.4 -22.2°
